TimePDT,TemperatureF,Dew PointF,Humidity,Sea Level PressureIn,VisibilityMPH,Wind Direction,Wind SpeedMPH,Gust SpeedMPH,PrecipitationIn,Events,Conditions,WindDirDegrees,DateUTC
12:53 AM,44.1,42.1,93,30.27,10.0,West,11.5,-,N/A,,Clear,260,2012-10-17 07:53:00
1:53 AM,43.0,42.1,97,30.29,10.0,Calm,Calm,-,N/A,,Clear,0,2012-10-17 08:53:00
2:53 AM,41.0,39.9,96,30.29,10.0,WNW,4.6,-,N/A,,Partly Cloudy,300,2012-10-17 09:53:00
3:53 AM,39.0,39.0,100,30.29,10.0,Calm,Calm,-,N/A,,Clear,0,2012-10-17 10:53:00
4:32 AM,35.6,35.6,100,30.28,4.0,Calm,Calm,-,N/A,,Mostly Cloudy,0,2012-10-17 11:32:00
4:53 AM,36.0,36.0,100,30.29,7.0,SSW,3.5,-,N/A,,Scattered Clouds,210,2012-10-17 11:53:00
5:03 AM,35.6,35.6,100,30.28,7.0,Calm,Calm,-,N/A,,Mostly Cloudy,0,2012-10-17 12:03:00
5:29 AM,35.6,35.6,100,30.28,10.0,Calm,Calm,-,N/A,,Overcast,0,2012-10-17 12:29:00
5:53 AM,37.0,36.0,96,30.30,10.0,Calm,Calm,-,N/A,,Overcast,0,2012-10-17 12:53:00
6:10 AM,35.6,35.6,100,30.28,10.0,Calm,Calm,-,N/A,,Mostly Cloudy,0,2012-10-17 13:10:00
6:39 AM,37.4,35.6,93,30.28,10.0,Calm,Calm,-,N/A,,Partly Cloudy,0,2012-10-17 13:39:00
6:53 AM,37.0,36.0,96,30.29,10.0,WSW,3.5,-,N/A,,Partly Cloudy,240,2012-10-17 13:53:00
7:29 AM,37.4,37.4,100,30.28,10.0,Calm,Calm,-,N/A,,Mostly Cloudy,0,2012-10-17 14:29:00
7:53 AM,37.9,37.0,97,30.31,10.0,Calm,Calm,-,N/A,,Overcast,0,2012-10-17 14:53:00
8:29 AM,39.2,37.4,93,30.27,10.0,Calm,Calm,-,N/A,,Scattered Clouds,0,2012-10-17 15:29:00
8:53 AM,39.9,39.0,97,30.32,10.0,Calm,Calm,-,N/A,,Scattered Clouds,0,2012-10-17 15:53:00
9:03 AM,41.0,39.2,93,30.31,10.0,Calm,Calm,-,N/A,,Mostly Cloudy,0,2012-10-17 16:03:00
9:53 AM,44.1,41.0,89,30.32,10.0,Calm,Calm,-,N/A,,Overcast,0,2012-10-17 16:53:00
10:32 AM,46.4,44.6,93,30.31,10.0,Calm,Calm,-,N/A,,Overcast,0,2012-10-17 17:32:00
10:53 AM,46.9,44.1,90,30.32,10.0,Variable,3.5,-,N/A,,Overcast,0,2012-10-17 17:53:00
11:50 AM,50.0,44.6,82,30.29,10.0,Calm,Calm,-,N/A,,Overcast,0,2012-10-17 18:50:00
11:53 AM,50.0,45.0,83,30.31,10.0,Calm,Calm,-,N/A,,Overcast,0,2012-10-17 18:53:00
12:11 PM,51.8,44.6,76,30.29,10.0,Calm,Calm,-,N/A,,Scattered Clouds,0,2012-10-17 19:11:00
12:53 PM,54.0,44.1,69,30.29,10.0,Variable,5.8,-,N/A,,Clear,0,2012-10-17 19:53:00
1:53 PM,57.0,45.0,64,30.26,10.0,East,5.8,-,N/A,,Clear,100,2012-10-17 20:53:00
2:53 PM,57.9,41.0,53,30.25,10.0,SE,5.8,-,N/A,,Mostly Cloudy,140,2012-10-17 21:53:00
3:53 PM,57.0,39.9,53,30.24,10.0,NE,4.6,-,N/A,,Overcast,50,2012-10-17 22:53:00
4:53 PM,55.9,42.1,60,30.23,10.0,ESE,5.8,-,N/A,,Overcast,110,2012-10-17 23:53:00
5:53 PM,55.0,42.1,62,30.23,10.0,NE,3.5,-,N/A,,Overcast,40,2012-10-18 00:53:00
6:53 PM,51.1,43.0,74,30.22,10.0,Calm,Calm,-,N/A,,Mostly Cloudy,0,2012-10-18 01:53:00
7:53 PM,50.0,44.1,80,30.23,10.0,Calm,Calm,-,N/A,,Overcast,0,2012-10-18 02:53:00
8:53 PM,48.0,44.1,86,30.23,10.0,Calm,Calm,-,N/A,,Mostly Cloudy,0,2012-10-18 03:53:00
9:53 PM,46.0,44.1,93,30.20,10.0,Calm,Calm,-,N/A,,Partly Cloudy,0,2012-10-18 04:53:00
10:53 PM,44.1,43.0,96,30.21,10.0,Calm,Calm,-,N/A,,Mostly Cloudy,0,2012-10-18 05:53:00
11:53 PM,42.1,42.1,100,30.21,10.0,Calm,Calm,-,N/A,,Mostly Cloudy,0,2012-10-18 06:53:00